www.pogodaiklimat.ru

Погода и климат >> Архив погоды >> Аргентина >> San Fernando del Valle de Catamarca


ПОГОДА в San Fernando del Valle de Catamarca

  • Прогноз погоды в San Fernando del Valle de Catamarca
  • Монитор погоды в San Fernando del Valle de Catamarca
  • Климат города

АРХИВ ПОГОДЫ в San Fernando del Valle de Catamarca

Время (UTC), дата Ветер
(напр.,м/с)
 
Видим.   Явления Облачность Т
(С)
Тd
(С)
f
(%)
Тe
(С)
Тes
(С)
Комфортность P
(гПа)
Po
(гПа)
Тmin
(С)
Tmax
(С)
R
(мм)
R24
(мм)
S
(см)
06 14.04 С 5 20 км 9/9 1200 м
[Sc]
+14.9 +5.8 54 +14 +14 1020.5 967.6
09 14.04 С 5 20 км 10/10 1200 м
[Sc]
+15.1 +5.6 53 +14 +14 1020.1 967.2
12 14.04 СЗ 1 20 км 10/10 1350 м
[Sc]
+15.1 +8.0 63 +16 +16 1022.1 968.9 +14.4 +15.6
15 14.04 С 2 20 км 8/8 1500 м
[Sc]
+21.1 +10.2 50 +23 +25 комфорт 1021.5 968.9
18 14.04 Ю 1 20 км 9/6 1500 м
[Sc Ac As]
+22.9 +10.9 47 +25 +27 комфорт 1018.8 966.5
21 14.04 С 6 20 км 4/4 1500 м
[Sc]
+24.3 +11.4 44 +26 +26 жарко 1016.9 964.8
00 15.04 С 8 20 км 5/5 1200 м
[Sc]
+18.9 +10.0 56 +19 +19 1019.4 966.6 +15.0 +25.2
03 15.04 С 7 20 км 3/3 1200 м
[Sc]
+17.5 +10.4 63 +17 +17 1020.6 968.2
06 15.04 Ю 2 20 км ясно +13.5 +11.1 85 +13 +13 1021.1 968.5
09 15.04 штиль 0 20 км ясно +11.5 +10.9 96 +11 +11 1020.9 968.2
12 15.04 С 1 20 км ясно +12.1 +9.2 82 +13 +15 1022.5 969.4 +9.1 +18.9
15 15.04 ЮЗ 3 20 км ясно +19.9 +9.1 50 +21 +31 комфорт 1021.0 968.5
18 15.04 СВ 8 20 км ясно +27.5 +12.8 40 +29 +31 жарко 1017.2 965.2
21 15.04 СВ 11 20 км ясно +28.2 +12.7 38 +30 +30 жарко 1017.2 964.6
00 16.04 С 8 20 км ясно +21.0 +15.1 69 +24 +24 комфорт 1018.2 965.4 +12.1 +28.7
03 16.04 С 5 20 км ясно +19.1 +14.2 73 +20 +20 1017.4 965.2
06 16.04 С 9 20 км ясно +20.0 +15.1 73 +22 +22 комфорт 1016.1 964.6
09 16.04 СВ 9 20 км ясно +18.9 +14.7 77 +19 +19 1014.1 962.8
12 16.04 Ю 2 20 км ясно +17.0 +12.8 76 +17 +19 1015.7 963.4 +15.9 +21.2
15 16.04 С 12 20 км 3/0
[Cc]
+25.9 +12.7 44 +28 +28 жарко 1014.2 962.6
18 16.04 С 14 20 км 1/0
[Ci]
+27.0 +12.7 41 +29 +29 жарко 1010.1 959.0
21 16.04 С 14 10 км пыльный позёмок 1/0
[Ci]
+25.9 +13.6 47 +28 +28 жарко 1009.9 958.6
00 17.04 С 11 15 км пыльный позёмок ясно +24.5 +15.3 57 +27 +27 жарко 1011.0 959.4 +17.0 +28.5
03 17.04 С 9 15 км пыль ясно +24.0 +15.7 60 +27 +27 жарко 1010.5 959.6
06 17.04 С 9 20 км ясно +23.1 +15.7 63 +27 +27 душно 1009.6 958.8
09 17.04 СВ 5 20 км ясно +19.9 +15.1 74 +22 +22 комфорт 1009.2 958.0
12 17.04 С 2 20 км ясно +20.7 +13.8 65 +24 +26 комфорт 1011.4 960.1 +17.0 +24.5
15 17.04 С 11 20 км ясно +29.3 +12.7 36 +30 +31 жарко 1010.3 959.7
18 17.04 СВ 4 20 км ясно +31.5 +11.9 30 +32 +39 жарко 1008.9 958.5
21 17.04 С 8 20 км ясно +29.7 +13.2 36 +31 +31 жарко 1009.1 958.2
00 18.04 С 6 20 км ясно +26.1 +15.8 53 +29 +29 жарко 1010.8 959.6 +20.7 +32.8
03 18.04 С 4 20 км ясно +23.1 +15.9 64 +28 +28 душно 1011.1 960.4
06 18.04 СЗ 2 20 км ясно +20.5 +16.1 76 +24 +24 комфорт 1011.1 960.4
09 18.04 ЮВ 2 20 км ясно +19.1 +14.2 73 +21 +21 комфорт 1012.3 961.2
12 18.04 С 2 20 км ясно +19.5 +15.4 77 +22 +24 комфорт 1014.1 962.6 +16.4 +26.5
15 18.04 Ю 2 20 км 1/1 1350 м
[Sc]
+26.3 +14.1 47 +29 +39 жарко 1012.4 961.4
18 18.04 С 7 20 км 1/1 1350 м
[Sc diur, vesp]
+32.1 +13.2 32 +33 +36 жарко 1007.9 957.4
21 18.04 С 11 20 км 3/3 1350 м
[Sc diur, vesp]
+29.9 +13.5 37 +31 +31 жарко 1006.9 956.1
00 19.04 С 4 15 км мгла 4/4 1500 м
[Sc]
+26.7 +16.5 54 +30 +30 душно 1008.0 956.9 +18.9 +32.8
03 19.04 С 7 20 км ясно +27.3 +15.4 48 +30 +30 душно 1008.0 957.4
06 19.04 С 7 20 км 3/3 1500 м
[Sc]
+25.5 +16.5 57 +29 +29 душно 1006.8 956.6
09 19.04 С 8 20 км ясно +23.9 +16.5 63 +27 +27 жарко 1006.1 955.8
12 19.04 С 4 20 км 3/0
[Ac As]
+23.3 +17.2 69 +29 +29 душно 1007.6 956.9 +22.4 +28.0
15 19.04 З 5 20 км 3/3 1200 м
[Sc]
+29.1 +18.0 51 +34 +37 очень
душно
1007.7 957.4
18 19.04 штиль 0 20 км 5/5 1200 м
[Sc]
+30.1 +17.0 45 +34 +41 очень
душно
1005.3 955.0
21 19.04 С 7 20 км 4/4 1200 м
[Sc]
+31.3 +16.3 41 +34 +35 душно 1004.4 954.2
00 20.04 С 7 20 км ясно +26.8 +16.8 54 +30 +30 душно 1006.5 955.8 +23.3 +33.6
03 20.04 С 3 20 км ясно +23.1 +17.0 69 +28 +28 душно 1007.4 956.9
06 20.04 С 2 20 км ясно +23.1 +17.0 69 +28 +28 душно 1006.8 956.4
09 20.04 С 2 20 км ясно +19.9 +15.8 77 +23 +23 комфорт 1007.5 956.9
12 20.04 СВ 3 20 км ясно +22.0 +16.6 71 +26 +27 душно 1009.5 958.6 +17.7 +26.8
15 20.04 ЮЗ 4 20 км ясно +27.4 +16.1 50 +31 +39 душно 1008.6 957.8
18 20.04 Ю 4 20 км ясно +33.7 +15.5 34 +36 +43 очень
душно
1005.1 955.0
21 20.04 ЮВ 5 20 км 4/4 1200 м
[Sc]
+32.9 +15.2 34 +35 +35 душно 1004.3 954.0
00 21.04 С 5 20 км 6/6 1200 м
[Sc]
+28.3 +15.9 47 +31 +31 душно 1006.8 956.1 +22.0 +34.4
03 21.04 С 4 20 км 3/0
[Cs]
+26.1 +16.9 57 +30 +30 душно 1007.8 957.3

 

Местоположение метеостанции San Fernando del Valle de Catamarca (Аргентина): широта -28.60 долгота -65.76 высота над уровнем моря 454 м.

В архиве по умолчанию представлена погода в San Fernando del Valle de Catamarca за последнюю неделю. Архивные данные за месяц целиком и за предыдущие месяцы, начиная с января 2011 года, Вы можете получить, выбрав интересующий диапазон дат из раскрывающегося списка и нажав кнопку "Ввод!".


*Определитесь, кто Вы:
робот инопланетянин человек

Внимание! Время в таблицах - всемирное. Для получения местного времени необходимо прибавить поправку, которая в San Fernando del Valle de Catamarca равна -3 ч.

Смотрите также архив погоды в соседних городах и на ближайших метеорологических станциях:

Погода в La Rioja (Аргентина) (134 км)
Погода в Santiago del Estero (Аргентина) (171 км)
Погода в Chamical (Аргентина) (202 км)
Погода в San Miguel de Tucuman (Аргентина) (206 км)
Погода в Villa de Maria del Rio Seco (Аргентина) (248 км)
Погода в Cordoba (Аргентина) (336 км)
Погода в Villa Dolores (Аргентина) (377 км)
Погода в Pilar (Аргентина) (385 км)
Погода в Ceres (Аргентина) (396 км)
Погода в San Juan (Аргентина) (403 км)

Пояснения к столбцам:

Ветер - указаны скорость ветра в м/с - средняя за 10 мин, порывы в срок и между сроками (в фигурных скобках) и направление, откуда дует ветер: С - северный, СВ - северо-восточный, В - восточный, ЮВ - юго-восточный, Ю - южный, ЮЗ - юго-западный, З - западный, СЗ - северо-западный.
Видимость - горизонтальная дальность видимости в метрах или километрах. При видимости от 1 до 10 км при отсутствии осадков обычно наблюдается дымка, при ухудшении видимости до 1 км и менее - туман. В сухую погоду видимость может ухудшаться дымом, пылью или мглою.
Явления - указаны атмосферные явления, наблюдавшиеся в срок или в последний час перед сроком; фигурными скобками обозначены явления, наблюдавшиеся между сроками (за 1-3 часа до срока); квадратными скобками обозначены град или гололедные отложения с указанием их диаметра в мм.
Облачность - указаны через наклонную черту общая и нижняя облачность в баллах и высота нижней границы облаков в метрах; квадратными скобками обозначены формы облаков: Ci - перистые, Cs - перисто-слоистые, Cc - перисто-кучевые, Ac - высококучевые, As - высокослоистые, Sc - слоисто-кучевые, Ns - слоисто-дождевые, Cu - кучевые, Cb - кучево-дождевые. Подробнее классификацию облаков см. в Атласе облаков (PDF).
T - Температура воздуха - температура, измеренная на высоте 2 м над землей.
Td - Температура точки росы - температура, при понижении до которой содержащийся в воздухе водяной пар достигнет насыщения.
f - Относительная влажность воздуха - влажноcть воздуха, измеренная на высоте 2 м над землей.
Te - Эффективная температура - температура, которую ощущает одетый по сезону человек в тени. Характеристика душности погоды. При расчете учитывается влияние влажности воздуха и скорости ветра на теплоощущения человека.
Tes - Эффективная температура на солнце - температура, которую ощущает человек, с поправкой на солнечный нагрев. Характеристика знойности погоды. Зависит от высоты солнца над горизонтом, облачности и скорости ветра. Ночью, в пасмурную погоду, а также при ветре 12 м/с и более поправка равна нулю.
P - Атмосферное давление - приведенное к уровню моря атмосферное давление.
Po - Атмосферное давление - измеренное на уровне метеостанции атмосферное давление.
Tmin - Минимальная температура - минимум температуры воздуха на высоте 2 м над землей.
Tmax - Максимальная температура - максимум температуры воздуха на высоте 2 м над землей.
R - Количество осадков - Количество выпавших осадков за период времени, мм. При наведении курсора мыши на число - период времени, за который выпало указанное количество осадков.
R24 - Количество осадков - Количество выпавших осадков за 24 часа, мм.
S - Снежный покров - Высота снежного покрова, см. При наведении курсора мыши на число - состояние снежного покрова и степень покрытия местности в баллах.